This is the latest recevied weather packets stored in our database for station/object KG4LKY-5. If no packets are shown the sender has not sent any weather packets the latest 10 day(s).
| Time | Temp. | Humidity | Pressure | Rain* | Wind** | Luminosity | Snow |
|---|---|---|---|---|---|---|---|
| 1777977127 | 14.44° C | 67% | 1012.8 hPa | 0 mm | - | - | - |
| 1777976827 | 13.89° C | 66% | 1012.7 hPa | 0 mm | - | - | - |
| 1777976527 | 14.44° C | 67% | 1012.6 hPa | 0 mm | - | - | - |
| 1777975926 | 14.44° C | 66% | 1012.7 hPa | 0 mm | - | - | - |
| 1777975325 | 13.89° C | 67% | 1012.7 hPa | 0 mm | - | - | - |
| 1777975025 | 13.89° C | 70% | 1012.6 hPa | 0 mm | - | - | - |
| 1777974124 | 13.89° C | 66% | 1012.6 hPa | 0 mm | - | - | - |
| 1777973524 | 14.44° C | 67% | 1012.6 hPa | 0 mm | - | - | - |
| 1777973222 | 14.44° C | 67% | 1012.7 hPa | 0 mm | - | - | - |
| 1777972922 | 14.44° C | 69% | 1012.9 hPa | 0 mm | - | - | - |
| 1777972622 | 14.44° C | 70% | 1012.8 hPa | 0 mm | - | - | - |
| 1777971420 | 13.89° C | 70% | 1012.8 hPa | 0 mm | - | - | - |
| 1777971120 | 14.44° C | 69% | 1012.8 hPa | 0 mm | - | - | - |
| 1777970820 | 15° C | 70% | 1012.8 hPa | 0 mm | - | - | - |
| 1777970520 | 14.44° C | 68% | 1012.8 hPa | 0 mm | - | - | - |
| 1777970219 | 14.44° C | 70% | 1012.8 hPa | 0 mm | - | - | - |
| 1777969919 | 14.44° C | 68% | 1012.8 hPa | 0 mm | - | - | - |
| 1777969619 | 14.44° C | 66% | 1012.7 hPa | 0 mm | - | - | - |
| 1777969318 | 15° C | 63% | 1012.7 hPa | 0 mm | - | - | - |
| 1777967515 | 15.56° C | 58% | 1012.3 hPa | 0 mm | - | - | - |
| 1777967213 | 16.11° C | 57% | 1012.3 hPa | 0 mm | - | - | - |
| 1777966613 | 15° C | 61% | 1012.3 hPa | 0 mm | - | - | - |
| 1777966312 | 16.11° C | 60% | 1012.3 hPa | 0 mm | - | - | - |
| 1777966012 | 15.56° C | 58% | 1012.3 hPa | 0 mm | - | - | - |
| 1777965409 | 16.11° C | 59% | 1012.4 hPa | 0 mm | - | - | - |
* Rain since midnight (hover to see other rain measurements)
** Current wind speed in m/s (hover to see current wind gust speed)